This is the latest recevied weather packets stored in our database for station/object KF0WJA. If no packets are shown the sender has not sent any weather packets the latest 10 day(s).
| Time | Temp. | Humidity | Pressure | Rain* | Wind** | Luminosity | Snow |
|---|---|---|---|---|---|---|---|
| 1787537310 | 24.44° C | 62% | 1017.8 hPa | 0 mm | - | 0 W/m² | - |
| 1787537006 | 24.44° C | 62% | 1017.7 hPa | 0 mm | - | 0 W/m² | - |
| 1787536704 | 24.44° C | 62% | 1018 hPa | 0 mm | - | 0 W/m² | - |
| 1787536402 | 24.44° C | 62% | 1018 hPa | 0 mm | - | 0 W/m² | - |
| 1787536101 | 24.44° C | 63% | 1018.1 hPa | 0 mm | - | 0 W/m² | - |
| 1787535797 | 24.44° C | 63% | 1018 hPa | 0 mm | - | 0 W/m² | - |
| 1787535497 | 24.44° C | 62% | 1018 hPa | 0 mm | - | 0 W/m² | - |
| 1787535193 | 25° C | 62% | 1017.6 hPa | 0 mm | - | 0 W/m² | - |
| 1787534889 | 25° C | 62% | 1017.8 hPa | 0 mm | - | 0 W/m² | - |
| 1787534588 | 25° C | 62% | 1017.6 hPa | 0 mm | - | 0 W/m² | - |
| 1787534286 | 25° C | 62% | 1017.6 hPa | 0 mm | - | 0 W/m² | - |
| 1787533982 | 25.56° C | 61% | 1017.3 hPa | 0 mm | - | 0 W/m² | - |
| 1787533677 | 25.56° C | 61% | 1017.3 hPa | 0 mm | - | 3 W/m² | - |
| 1787533374 | 25.56° C | 60% | 1017.2 hPa | 0 mm | - | 6 W/m² | - |
| 1787533074 | 26.11° C | 60% | 1017.2 hPa | 0 mm | - | 10 W/m² | - |
| 1787532769 | 26.11° C | 59% | 1017.3 hPa | 0 mm | - | 15 W/m² | - |
| 1787532469 | 26.11° C | 59% | 1017.4 hPa | 0 mm | - | 20 W/m² | - |
| 1787532166 | 26.67° C | 58% | 1017.1 hPa | 0 mm | - | 26 W/m² | - |
| 1787531861 | 26.67° C | 58% | 1017.3 hPa | 0 mm | - | 36 W/m² | - |
| 1787531558 | 26.67° C | 57% | 1017.5 hPa | 0 mm | - | 49 W/m² | - |
| 1787531253 | 26.67° C | 57% | 1017.5 hPa | 0 mm | - | 63 W/m² | - |
| 1787530949 | 27.22° C | 57% | 1017.5 hPa | 0 mm | - | 67 W/m² | - |
| 1787530644 | 26.67° C | 57% | 1017.4 hPa | 0 mm | - | 72 W/m² | - |
| 1787530339 | 26.67° C | 58% | 1017.6 hPa | 0 mm | - | 60 W/m² | - |
| 1787530034 | 27.22° C | 57% | 1017.7 hPa | 0 mm | - | 71 W/m² | - |
* Rain latest hour (hover to see other rain measurements)
** Current wind speed in m/s (hover to see current wind gust speed)